Orbital Elements at Epoch 2459000.5 (2020-May-31.0) TDB
Reference: JPL 10 (heliocentric ecliptic J2000)
Element | Value | Uncertainty (1-sigma) | Units |
e | .1789874390201013 | 8.3165e-08 | |
a | 2.637088868341873 | 1.9307e-08 | au |
q | 2.165083085328944 | 2.25e-07 | au |
i | 13.95018692273476 | 1.0498e-05 | deg |
node | 173.0078514653151 | 2.0591e-05 | deg |
peri | 357.3490820811163 | 2.5472e-05 | deg |
M | 177.8818783793369 | 1.4869e-05 | deg |
tp | 2458227.615173500070 (2018-Apr-19.11517350) | 6.1823e-05 | TDB |
period | 1564.175845650928 4.28 | 1.7178e-05 4.703e-08 | d yr |
n | .2301531512591455 | 2.5276e-09 | deg/d |
Q | 3.109094651354803 | 2.2763e-08 | au |
|
| | Orbit Determination Parameters
Additional Information
|